Time,TemperatureF,DewpointF,PressureIn,WindDirection,WindDirectionDegrees,WindSpeedMPH,WindSpeedGustMPH,Humidity,HourlyPrecipIn,Conditions,Clouds,dailyrainin,SoftwareType,DateUTC
2013-01-20 00:10:00,42.9,30.0,30.11,South,186,2.0,5.0,60,0.00,,,0.00,weatherlink.com 1.10,2013-01-20 05:10:00,
2013-01-20 00:25:00,42.9,30.0,30.11,SSW,200,5.0,5.0,60,0.00,,,0.00,weatherlink.com 1.10,2013-01-20 05:25:00,
2013-01-20 00:41:00,42.9,29.0,30.11,SSW,210,1.0,6.0,59,0.00,,,0.00,weatherlink.com 1.10,2013-01-20 05:41:00,
2013-01-20 00:56:00,42.7,29.0,30.11,SSW,211,3.0,6.0,58,0.00,,,0.00,weatherlink.com 1.10,2013-01-20 05:56:00,
2013-01-20 01:11:00,42.9,28.0,30.10,SSW,211,3.0,7.0,57,0.00,,,0.00,weatherlink.com 1.10,2013-01-20 06:11:00,
2013-01-20 01:26:00,43.2,29.0,30.10,SW,217,3.0,6.0,57,0.00,,,0.00,weatherlink.com 1.10,2013-01-20 06:26:00,
2013-01-20 01:41:00,43.4,28.0,30.10,SSW,211,3.0,7.0,56,0.00,,,0.00,weatherlink.com 1.10,2013-01-20 06:41:00,
2013-01-20 01:56:00,43.4,28.0,30.09,SSW,209,2.0,7.0,54,0.00,,,0.00,weatherlink.com 1.10,2013-01-20 06:56:00,
2013-01-20 02:11:00,43.7,28.0,30.09,SSW,209,3.0,6.0,54,0.00,,,0.00,weatherlink.com 1.10,2013-01-20 07:11:00,
2013-01-20 02:26:00,44.7,29.0,30.08,WSW,237,4.0,12.0,54,0.00,,,0.00,weatherlink.com 1.10,2013-01-20 07:26:00,
2013-01-20 02:41:00,45.3,30.0,30.07,SW,225,5.0,11.0,55,0.00,,,0.00,weatherlink.com 1.10,2013-01-20 07:41:00,
2013-01-20 02:56:00,45.8,31.0,30.07,SSW,205,7.0,9.0,56,0.00,,,0.00,weatherlink.com 1.10,2013-01-20 07:56:00,
2013-01-20 03:11:00,45.8,31.0,30.06,SW,219,6.0,8.0,56,0.00,,,0.00,weatherlink.com 1.10,2013-01-20 08:11:00,
2013-01-20 03:26:00,45.8,31.0,30.06,SW,225,5.0,11.0,56,0.00,,,0.00,weatherlink.com 1.10,2013-01-20 08:26:00,
2013-01-20 03:41:00,45.5,30.0,30.05,WSW,245,5.0,7.0,56,0.00,,,0.00,weatherlink.com 1.10,2013-01-20 08:41:00,
2013-01-20 03:56:00,45.1,30.0,30.05,SSW,206,5.0,9.0,55,0.00,,,0.00,weatherlink.com 1.10,2013-01-20 08:56:00,
2013-01-20 04:11:00,44.9,29.0,30.05,SSW,211,4.0,7.0,54,0.00,,,0.00,weatherlink.com 1.10,2013-01-20 09:11:00,
2013-01-20 04:26:00,44.7,29.0,30.04,SW,223,5.0,8.0,54,0.00,,,0.00,weatherlink.com 1.10,2013-01-20 09:26:00,
2013-01-20 04:41:00,44.7,29.0,30.04,SSW,200,7.0,7.0,54,0.00,,,0.00,weatherlink.com 1.10,2013-01-20 09:41:00,
2013-01-20 04:56:00,44.8,29.0,30.04,SSW,211,3.0,10.0,54,0.00,,,0.00,weatherlink.com 1.10,2013-01-20 09:56:00,
2013-01-20 05:11:00,45.1,29.0,30.04,SW,228,4.0,10.0,54,0.00,,,0.00,weatherlink.com 1.10,2013-01-20 10:11:00,
2013-01-20 05:26:00,45.4,30.0,30.03,SSW,198,7.0,10.0,55,0.00,,,0.00,weatherlink.com 1.10,2013-01-20 10:26:00,
2013-01-20 05:41:00,45.6,31.0,30.03,SSW,209,4.0,11.0,56,0.00,,,0.00,weatherlink.com 1.10,2013-01-20 10:41:00,
2013-01-20 05:56:00,45.8,31.0,30.02,South,177,3.0,10.0,57,0.00,,,0.00,weatherlink.com 1.10,2013-01-20 10:56:00,
2013-01-20 06:11:00,45.9,31.0,30.01,SSW,194,10.0,15.0,57,0.00,,,0.00,weatherlink.com 1.10,2013-01-20 11:11:00,
2013-01-20 06:26:00,46.2,32.0,30.01,SSW,200,6.0,16.0,57,0.00,,,0.00,weatherlink.com 1.10,2013-01-20 11:26:00,
2013-01-20 06:41:00,46.0,31.0,30.01,SW,220,6.0,14.0,57,0.00,,,0.00,weatherlink.com 1.10,2013-01-20 11:41:00,
2013-01-20 06:56:00,45.9,32.0,30.01,SW,215,6.0,13.0,58,0.00,,,0.00,weatherlink.com 1.10,2013-01-20 11:56:00,
2013-01-20 07:11:00,45.9,32.0,30.01,SSW,192,5.0,9.0,58,0.00,,,0.00,weatherlink.com 1.10,2013-01-20 12:11:00,
2013-01-20 07:26:00,45.7,32.0,30.01,SW,223,7.0,13.0,59,0.00,,,0.00,weatherlink.com 1.10,2013-01-20 12:26:00,
2013-01-20 07:41:00,45.7,32.0,30.00,SSW,202,6.0,11.0,59,0.00,,,0.00,weatherlink.com 1.10,2013-01-20 12:41:00,
2013-01-20 07:56:00,45.9,33.0,30.00,SW,219,6.0,10.0,62,0.00,,,0.00,weatherlink.com 1.10,2013-01-20 12:56:00,
2013-01-20 08:11:00,46.4,34.0,30.01,SW,228,5.0,10.0,63,0.00,,,0.00,weatherlink.com 1.10,2013-01-20 13:11:00,
2013-01-20 08:26:00,47.0,35.0,30.01,SW,236,7.0,15.0,64,0.00,,,0.00,weatherlink.com 1.10,2013-01-20 13:26:00,
2013-01-20 08:41:00,47.7,36.0,30.01,SW,218,5.0,14.0,64,0.00,,,0.00,weatherlink.com 1.10,2013-01-20 13:41:00,
2013-01-20 08:57:00,48.5,36.0,30.01,West,260,7.0,13.0,63,0.00,,,0.00,weatherlink.com 1.10,2013-01-20 13:57:00,
2013-01-20 09:12:00,49.3,37.0,30.01,WSW,245,5.0,12.0,62,0.00,,,0.00,weatherlink.com 1.10,2013-01-20 14:12:00,
2013-01-20 09:27:00,49.9,37.0,30.01,WSW,243,5.0,10.0,61,0.00,,,0.00,weatherlink.com 1.10,2013-01-20 14:27:00,
2013-01-20 09:42:00,51.1,37.0,30.02,SW,230,9.0,13.0,59,0.00,,,0.00,weatherlink.com 1.10,2013-01-20 14:42:00,
2013-01-20 09:57:00,52.2,37.0,30.02,WSW,244,4.0,12.0,57,0.00,,,0.00,weatherlink.com 1.10,2013-01-20 14:57:00,
2013-01-20 10:12:00,53.3,36.0,30.01,SW,226,5.0,13.0,53,0.00,,,0.00,weatherlink.com 1.10,2013-01-20 15:12:00,
2013-01-20 10:27:00,54.1,37.0,30.01,WSW,254,3.0,15.0,52,0.00,,,0.00,weatherlink.com 1.10,2013-01-20 15:27:00,
2013-01-20 10:42:00,54.9,37.0,30.00,SW,225,10.0,13.0,51,0.00,,,0.00,weatherlink.com 1.10,2013-01-20 15:42:00,
2013-01-20 10:57:00,55.7,38.0,29.99,WSW,251,7.0,13.0,51,0.00,,,0.00,weatherlink.com 1.10,2013-01-20 15:57:00,
2013-01-20 11:12:00,56.8,37.0,29.98,WSW,244,9.0,14.0,47,0.00,,,0.00,weatherlink.com 1.10,2013-01-20 16:12:00,
2013-01-20 11:27:00,57.0,37.0,29.97,WSW,252,11.0,18.0,47,0.00,,,0.00,weatherlink.com 1.10,2013-01-20 16:27:00,
2013-01-20 11:42:00,57.7,37.0,29.95,SW,223,6.0,16.0,46,0.00,,,0.00,weatherlink.com 1.10,2013-01-20 16:42:00,
2013-01-20 11:57:00,59.0,38.0,29.94,SW,234,7.0,18.0,45,0.00,,,0.00,weatherlink.com 1.10,2013-01-20 16:57:00,
2013-01-20 12:12:00,59.3,37.0,29.93,WSW,245,5.0,16.0,43,0.00,,,0.00,weatherlink.com 1.10,2013-01-20 17:12:00,
2013-01-20 12:27:00,59.3,37.0,29.92,SW,232,7.0,19.0,44,0.00,,,0.00,weatherlink.com 1.10,2013-01-20 17:27:00,
2013-01-20 12:42:00,60.0,38.0,29.92,WSW,246,5.0,16.0,45,0.00,,,0.00,weatherlink.com 1.10,2013-01-20 17:42:00,
2013-01-20 12:57:00,60.1,37.0,29.91,SSW,196,8.0,18.0,43,0.00,,,0.00,weatherlink.com 1.10,2013-01-20 17:57:00,
2013-01-20 13:12:00,60.8,36.0,29.90,WSW,250,16.0,17.0,40,0.00,,,0.00,weatherlink.com 1.10,2013-01-20 18:12:00,
2013-01-20 13:27:00,60.8,36.0,29.89,SW,230,5.0,18.0,40,0.00,,,0.00,weatherlink.com 1.10,2013-01-20 18:27:00,
2013-01-20 13:43:00,61.4,37.0,29.89,SW,236,9.0,16.0,41,0.00,,,0.00,weatherlink.com 1.10,2013-01-20 18:43:00,
2013-01-20 13:58:00,61.9,38.0,29.89,West,261,4.0,16.0,41,0.00,,,0.00,weatherlink.com 1.10,2013-01-20 18:58:00,
2013-01-20 14:13:00,61.6,36.0,29.89,WSW,238,7.0,17.0,39,0.00,,,0.00,weatherlink.com 1.10,2013-01-20 19:13:00,
2013-01-20 14:28:00,62.0,37.0,29.88,WSW,241,8.0,16.0,39,0.00,,,0.00,weatherlink.com 1.10,2013-01-20 19:28:00,
2013-01-20 14:43:00,62.0,37.0,29.89,WSW,251,10.0,17.0,39,0.00,,,0.00,weatherlink.com 1.10,2013-01-20 19:43:00,
2013-01-20 14:58:00,61.8,36.0,29.89,West,281,11.0,17.0,38,0.00,,,0.00,weatherlink.com 1.10,2013-01-20 19:58:00,
2013-01-20 15:13:00,61.9,36.0,29.89,SSW,213,6.0,17.0,38,0.00,,,0.00,weatherlink.com 1.10,2013-01-20 20:13:00,
2013-01-20 15:28:00,62.2,36.0,29.89,SW,215,4.0,12.0,38,0.00,,,0.00,weatherlink.com 1.10,2013-01-20 20:28:00,
2013-01-20 15:43:00,61.9,36.0,29.89,WSW,244,13.0,14.0,39,0.00,,,0.00,weatherlink.com 1.10,2013-01-20 20:43:00,
2013-01-20 15:58:00,61.6,36.0,29.90,WSW,239,4.0,14.0,39,0.00,,,0.00,weatherlink.com 1.10,2013-01-20 20:58:00,
2013-01-20 16:13:00,61.2,36.0,29.91,WSW,240,7.0,15.0,39,0.00,,,0.00,weatherlink.com 1.10,2013-01-20 21:13:00,
2013-01-20 16:28:00,61.0,36.0,29.91,WSW,244,4.0,16.0,40,0.00,,,0.00,weatherlink.com 1.10,2013-01-20 21:28:00,
2013-01-20 16:43:00,60.4,36.0,29.91,WSW,246,2.0,13.0,40,0.00,,,0.00,weatherlink.com 1.10,2013-01-20 21:43:00,
2013-01-20 16:57:00,59.8,36.0,29.92,West,275,12.0,12.0,41,0.00,,,0.00,weatherlink.com 1.10,2013-01-20 21:57:00,
2013-01-20 17:12:00,59.0,36.0,29.92,SW,233,1.0,8.0,42,0.00,,,0.00,weatherlink.com 1.10,2013-01-20 22:12:00,
2013-01-20 17:27:00,58.0,36.0,29.93,SW,233,3.0,5.0,44,0.00,,,0.00,weatherlink.com 1.10,2013-01-20 22:27:00,
2013-01-20 17:42:00,57.8,36.0,29.94,SW,230,4.0,10.0,44,0.00,,,0.00,weatherlink.com 1.10,2013-01-20 22:42:00,
2013-01-20 17:57:00,57.2,36.0,29.95,WSW,245,6.0,7.0,45,0.00,,,0.00,weatherlink.com 1.10,2013-01-20 22:57:00,
2013-01-20 18:12:00,56.6,36.0,29.96,WSW,241,4.0,5.0,46,0.00,,,0.00,weatherlink.com 1.10,2013-01-20 23:12:00,
2013-01-20 18:27:00,56.2,35.0,29.97,WSW,239,1.0,5.0,46,0.00,,,0.00,weatherlink.com 1.10,2013-01-20 23:27:00,
2013-01-20 18:42:00,55.4,36.0,29.97,WSW,239,2.0,3.0,48,0.00,,,0.00,weatherlink.com 1.10,2013-01-20 23:42:00,
2013-01-20 18:57:00,55.0,36.0,29.98,WSW,240,1.0,6.0,49,0.00,,,0.00,weatherlink.com 1.10,2013-01-20 23:57:00,
2013-01-20 19:12:00,54.6,36.0,29.99,WSW,240,1.0,4.0,49,0.00,,,0.00,weatherlink.com 1.10,2013-01-21 00:12:00,
2013-01-20 19:27:00,54.2,36.0,30.00,WSW,240,2.0,4.0,50,0.00,,,0.00,weatherlink.com 1.10,2013-01-21 00:27:00,
2013-01-20 19:42:00,53.7,36.0,30.01,WSW,240,1.0,4.0,51,0.00,,,0.00,weatherlink.com 1.10,2013-01-21 00:42:00,
2013-01-20 19:57:00,53.7,36.0,30.01,WSW,240,3.0,5.0,51,0.00,,,0.00,weatherlink.com 1.10,2013-01-21 00:57:00,
2013-01-20 20:12:00,53.2,35.0,30.02,WSW,240,0.0,3.0,51,0.00,,,0.00,weatherlink.com 1.10,2013-01-21 01:12:00,
2013-01-20 20:27:00,52.8,35.0,30.02,WSW,240,0.0,6.0,52,0.00,,,0.00,weatherlink.com 1.10,2013-01-21 01:27:00,
2013-01-20 20:42:00,52.8,35.0,30.02,WSW,240,0.0,5.0,51,0.00,,,0.00,weatherlink.com 1.10,2013-01-21 01:42:00,
2013-01-20 20:57:00,52.6,35.0,30.02,WSW,246,2.0,5.0,51,0.00,,,0.00,weatherlink.com 1.10,2013-01-21 01:57:00,
2013-01-20 21:12:00,52.5,34.0,30.02,WSW,247,3.0,7.0,50,0.00,,,0.00,weatherlink.com 1.10,2013-01-21 02:12:00,
2013-01-20 21:27:00,52.7,33.0,30.03,WSW,254,3.0,6.0,48,0.00,,,0.00,weatherlink.com 1.10,2013-01-21 02:27:00,
2013-01-20 21:42:00,52.3,33.0,30.03,WNW,286,3.0,3.0,49,0.00,,,0.00,weatherlink.com 1.10,2013-01-21 02:42:00,
2013-01-20 21:57:00,51.9,34.0,30.03,West,281,0.0,5.0,50,0.00,,,0.00,weatherlink.com 1.10,2013-01-21 02:57:00,
2013-01-20 22:12:00,51.4,34.0,30.04,West,261,0.0,5.0,51,0.00,,,0.00,weatherlink.com 1.10,2013-01-21 03:12:00,
2013-01-20 22:27:00,51.0,34.0,30.05,West,261,0.0,4.0,52,0.00,,,0.00,weatherlink.com 1.10,2013-01-21 03:27:00,
2013-01-20 22:42:00,50.4,34.0,30.04,West,261,3.0,5.0,53,0.00,,,0.00,weatherlink.com 1.10,2013-01-21 03:42:00,
2013-01-20 22:57:00,49.4,34.0,30.05,West,261,0.0,1.0,56,0.00,,,0.00,weatherlink.com 1.10,2013-01-21 03:57:00,
2013-01-20 23:12:00,49.0,35.0,30.05,West,261,0.0,3.0,58,0.00,,,0.00,weatherlink.com 1.10,2013-01-21 04:12:00,
2013-01-20 23:27:00,48.4,34.0,30.05,West,261,0.0,4.0,59,0.00,,,0.00,weatherlink.com 1.10,2013-01-21 04:27:00,
2013-01-20 23:42:00,47.6,35.0,30.06,ENE,66,0.0,4.0,62,0.00,,,0.00,weatherlink.com 1.10,2013-01-21 04:42:00,
2013-01-20 23:57:00,47.3,35.0,30.06,ENE,67,2.0,3.0,63,0.00,,,0.00,weatherlink.com 1.10,2013-01-21 04:57:00,